SL-16 DEB

Satellite information

Favourite Embed

Satellite Type and Status

DEBRISIN ORBIT

Key statistics

Satellite SL-16 DEB at a glance.

Uptime

12042

Days in orbit

Revolutions

≈ 14.5

Per day

Orbit

LEO

Low Earth Orbit

Inclination

71.0

Latest

Satellite identification and parameters

Extended collection of information and parameters for SL-16 DEB.

Object identification

Identified? True

Debris? True

Object name: SL-16 DEB

International designator: 1992-093W

Object number (NORAD): 22333

Object ID (CCSDS): 22333

Country: COMMONWEALTH OF INDEPENDENT STATES (CIS)

Current information (Y/N): Y

RCS size: MEDIUM

Orbital parameters

Period: 99.591 minutes

Inclination: 71.002 deg

SMA: 7117.16 km

Apoapsis: 826.036 km

Periapsis: 652.014 km

RAAN: 131.009 deg

Eccentricy: 0.01222548

Argument of periapsis: 152.7365 deg

Mean anomaly: 208.0264 deg

Mean motion: 14.45914727 rev/day

Mean motion (dot): 0.00001372 rev/day2

B* drag term: 0.00036600328 1/REarth

Two-line elements (TLE)

Creation date: Dec. 12, 2025, 3:16 a.m.

Reference frame: TEME

Reference center: EARTH

Epoch: Dec. 11, 2025, 8:08 p.m. UTC

TLE line 0: 0 SL-16 DEB

TLE line 1: 1 22333U 92093W 25345.83951156 .00001372 00000-0 36600-3 0 9994

TLE line 2: 2 22333 71.0020 131.0090 0122255 152.7365 208.0264 14.45914727712988

Live tracking on map

Real-time ground track for satellite SL-16 DEB.

In-orbit conjunctions

A list of the most updated potential collisions computed for object SL-16 DEB.

Target Orbit TCA Probability of collision Miss distance Type
FENGYUN 1C DEB SSO 2024-12-25 00:38:36 0.0001136248 203.0 (m) DEBRIS
FENGYUN 1C DEB SSO 2024-11-20 07:00:21 0.0001352457 126.0 (m) DEBRIS

Associated space launch

Second generation ELING satellite

SL-16 DEB was lifted into orbit during the mission ‘Zenit-2 | Tselina-2 12’, on board a Zenit-2 space rocket.

The launch took place on Dec. 25, 1992, 5:56 a.m. from 45/1.

For more information about the launch, click the button.

Launch to space Zenit-2 | Tselina-2 12
Zenit-2 | Tselina-2 12

Agency: N/A

Status: Launch Successful

Launch date: Dec. 25, 1992, 5:56 a.m. UTC

Rocket: Zenit-2

Launch pad: 45/1

Location: Baikonur Cosmodrome, Republic of Kazakhstan

...

Latest news about this satellite

There are no fresh news available about this satellite. Check back as we update our databases every day.


Newsletter sign-up

Weekly statistics, charts and insights to help you stay on top of the space industry.